OBJECT L, 67258

Orbit data source: Space-Track

You're viewing an Uncataloged Satellite

Recently launched and/or uncataloged satellites may have evolving metadata. Metadata may include but not limited to: Owner, Maufacturer, Bus, Motor, and Mission.

OBJECT L, 67258 is a satellite in SSO that was launched on Sun, 28 Dec 2025 UTC via a SOYUZ-2-1B launch vehicle from the Vostochny Cosmodrome (VOSTO). Unknown objects in Earth's orbit typically refer to objects detected orbiting the Earth but have not yet been identified or cataloged. These objects could be anything from previously untracked satellites, spent rocket stages, debris from satellite collisions, or even natural meteoroids temporarily captured by Earth's gravity.

Loading next visibility...
Identifier
67258, 2025-313L
Orbit
SSO
Country
Flag of TBDTBD
Related business
Manufacturer
Sputniks
Mission
Operational Commercial Technology
Bus & Motor
CUBESAT 3U, Unknown motor
Mass
3 kg wet, 3 kg dry
Launch date (UTC)
2025-12-28 (6 months ago)
Launch vehicle
SOYUZ-2-1B
Launch site
Vostochny Cosmodrome (VOSTO)
Object type
Unknown
Shape & HBR
Box, 0.1 m
Radar Cross Section
0.035 m², Medium (>0.1 m² and < 1m²)

Expand to show TLE details & history
Last TLE update: 1 day ago

TLE from 1 day ago
0 OBJECT L
1 67258U 25313L   26170.76919578  .00007326  00000-0  31148-3 0  9998
2 67258  97.3924 245.3398 0014846   0.3754 359.7491 15.23228310 26340
Epoch: 2026-06-19T18:27Z
TLE epoch observation values (Epoch: 2026-06-19T18:27:38.515Z)
Latitude
-0.00006°
Longitude
60.43591°
Altitude
488.998 km
Speed
7.626 km/s
True Right ascension
16h 21m 21s
True Declination
0° 00' 00"
Sunlit
Object was in full shadow at epoch
Visualization orbit readout
Latitude
Unknown
Longitude
Unknown
Altitude
Unknown
Speed
Unknown
Apparent Right ascension
Unknown
Apparent Declination
Unknown
Sunlit
N/A
Visualization observer readout
Local Sidereal Time
07:19:47
Azimuth
Unknown
Elevation
Unknown
Doppler factor
Unknown
Orbital elements
Apogee altitude
503.273 km
Perigee altitude
482.871 km
Semi-major axis
6,871.209 km
Eccentricity
0.00148
Inclination
97.3924°
RAAN
245.3398°
Arg. of periapsis
0.3754°
True anomaly
359.74835°
Mean anomaly
359.7491°
Eccentric anomaly
359.74873°
Mean motion
3.8106 °/min
Orbital period
94.47 mins
BSTAR
0.00031148
Loading maneuver chart data...
Computing Atmospheric mass density...
Loading historical data...
Loading historical data...
Loading historical data...
Loading historical data...
Loading historical data...
Loading historical data...
Loading historical data...

Documentation

Showing up to 5 results
|